SV1IW Athens current weather conditions

sailwx.info

Wind from 311 at 1 knots gusting 2

Air temperature 27.8° C
Dewpoint 13.3° C

Last reported at 2014-Jul-20 23:30 UTC.
Time now 2014-Jul-22 13:26 UTC

Location: N 37°58' E 023°43'.
View on Google Maps.

See reports from other nearby stations

  
Tides and Currents Weather Stations Pressure Air Temp Water Temp Dewpoint Dewpoint Depression Visibility Wind Speed Wind Dir Waves Ship Positions
date/time (UTC)wind fromknots sea level pressurealtimeterstation pressurevisibilityair tempwater tempwave heightnotes
2014-Jul-20 23:30 311 1 gusting 2 27.8
2014-Jul-20 23:00 311 1 gusting 2 27.8
2014-Jul-20 22:30 323 0 gusting 2 27.8
2014-Jul-20 22:01 319 28.3
2014-Jul-20 21:30 341 28.3
2014-Jul-20 20:30 344 2 gusting 6 28.9
2014-Jul-20 20:00 347 4 gusting 7 28.9
2014-Jul-20 19:30 349 5 gusting 7 29.4
2014-Jul-20 19:00 351 4 gusting 10 29.4
2014-Jul-20 18:30 349 2 gusting 10 30.0
2014-Jul-20 18:00 354 5 gusting 11 30.6
2014-Jul-20 17:30 343 6 gusting 11 30.6
2014-Jul-20 17:00 013 4 gusting 13 31.1
2014-Jul-20 16:30 351 6 gusting 13 31.7
2014-Jul-20 16:00 358 7 gusting 13 32.2
2014-Jul-20 15:30 344 6 gusting 14 33.3
2014-Jul-20 15:00 352 6 gusting 14 33.3
2014-Jul-20 14:00 014 6 gusting 13 33.3
2014-Jul-20 13:30 355 4 gusting 12 32.8
2014-Jul-20 13:00 035 5 gusting 12 33.3